EW1675 Weather Reports


time (UTC)temp
F
wind
direction
speed
knots
gust
knots
rain 1hr
in
rain 24hr
in
rain mn
in
humidity
%
barometer
mb
20260902081023 76 0 0.0 0.0 0.00 0.00 0.00 85 1017.6
20260902080023 77 0 0.0 0.0 0.00 0.00 0.00 84 1017.5
20260902075044 77 0 0.0 0.0 0.00 0.00 0.00 83 1017.6
20260902074044 77 0 0.0 0.0 0.00 0.00 0.00 82 1017.4
20260902073023 78 355 0.0 0.9 0.00 0.00 0.00 82 1017.4
20260902072023 78 0 0.0 0.0 0.00 0.00 0.00 81 1017.3
20260902071002 78 0 0.0 0.0 0.00 0.00 0.00 80 1017.2
20260902070044 79 0 0.0 0.0 0.00 0.00 0.00 80 1017.1
20260902065002 79 0 0.0 0.0 0.00 0.00 0.00 79 1017.2
20260902064105 79 355 0.0 1.7 0.00 0.00 0.00 79 1017.1
20260902063044 79 355 0.9 2.6 0.00 0.00 0.00 79 1017.2
20260902062023 79 338 0.9 3.5 0.00 0.00 0.00 79 1017.1
20260902061002 78 311 0.9 2.6 0.00 0.00 0.00 79 1017.1
20260902060023 78 250 0.0 1.7 0.00 0.00 0.00 80 1017.1
20260902055002 78 266 0.0 0.9 0.00 0.00 0.00 81 1017.2
20260902054106 78 16 0.0 2.6 0.00 0.00 0.00 81 1017.2
20260902053002 78 0 0.0 0.0 0.00 0.00 0.00 83 1017.0
20260902052002 79 0 0.0 0.0 0.00 0.00 0.00 82 1017.0
20260902051002 79 117 0.0 0.9 0.00 0.00 0.00 82 1016.9
20260902050003 79 117 0.0 0.9 0.00 0.00 0.00 82 1017.0
20260902045105 80 117 0.0 1.7 0.00 0.00 0.00 82 1016.8
20260902044002 80 117 0.0 1.7 0.00 0.00 0.00 80 1016.6
20260902043023 80 0 0.0 0.0 0.00 0.00 0.00 78 1016.6
20260902042023 80 117 0.0 0.9 0.00 0.00 0.00 78 1016.5
20260902041105 80 117 0.0 0.9 0.00 0.00 0.00 79 1016.5
20260902040024 80 117 0.0 1.7 0.00 0.00 0.00 80 1016.5
20260902035023 80 119 0.0 1.7 0.00 0.00 0.00 80 1016.4
20260902034002 80 0 0.0 0.0 0.00 0.00 0.00 81 1016.3
20260902033002 80 0 0.0 0.0 0.00 0.00 0.00 81 1016.1
20260902032044 80 0 0.0 0.0 0.00 0.00 0.00 81 1015.9
20260902031023 80 0 0.0 0.0 0.00 0.00 0.00 81 1015.8
20260902030002 80 0 0.0 0.0 0.00 0.00 0.00 82 1015.8
20260902025002 80 0 0.0 0.0 0.00 0.00 0.00 82 1015.8
20260902024023 81 0 0.0 0.0 0.00 0.00 0.00 82 1015.9
20260902023002 81 0 0.0 0.0 0.00 0.00 0.00 83 1016.1
20260902022045 82 0 0.0 0.0 0.00 0.00 0.00 83 1016.2
20260902021045 82 0 0.0 0.0 0.00 0.00 0.00 82 1016.1
20260902020003 82 0 0.0 0.0 0.00 0.00 0.00 82 1015.9
20260902015105 82 0 0.0 0.0 0.00 0.00 0.00 82 1015.7
20260902014002 83 0 0.0 0.0 0.00 0.00 0.00 81 1015.8
20260902013045 83 0 0.0 0.0 0.00 0.00 0.00 80 1015.8
20260902012024 83 0 0.0 0.0 0.00 0.00 0.00 79 1015.6
20260902011003 84 0 0.0 0.0 0.00 0.00 0.00 78 1015.4
20260902010002 84 0 0.0 0.0 0.00 0.00 0.00 78 1015.3
20260902005023 85 0 0.0 0.0 0.00 0.00 0.00 77 1015.2
20260902004002 85 0 0.0 0.0 0.00 0.00 0.00 77 1014.8
20260902003003 86 0 0.0 0.0 0.00 0.00 0.00 75 1014.8
20260902002003 87 0 0.0 0.0 0.00 0.00 0.00 74 1014.7
20260902001024 87 0 0.0 0.0 0.00 0.00 0.00 73 1014.5
20260902000003 88 0 0.0 0.0 0.00 0.00 0.00 71 1014.3
20260901235003 89 0 0.0 0.0 0.00 0.00 0.00 69 1014.3
20260901234003 89 0 0.0 0.0 0.00 0.00 0.00 67 1014.3
20260901233003 90 0 0.0 0.0 0.00 0.00 0.00 67 1014.4
20260901232003 90 0 0.0 0.0 0.00 0.00 0.00 66 1014.6
20260901231003 90 0 0.0 0.0 0.00 0.00 0.00 64 1014.6
20260901230024 90 130 0.0 0.9 0.00 0.00 0.00 64 1014.7
20260901224001 91 358 0.0 2.6 0.00 0.00 0.00 64 1014.6
20260901223044 91 154 0.0 1.7 0.00 0.00 0.00 64 1014.7
20260901222022 91 154 0.0 0.9 0.00 0.00 0.00 64 1014.8
20260901221002 91 154 0.0 1.7 0.00 0.00 0.00 63 1014.9
20260901220043 92 154 0.0 0.9 0.00 0.00 0.00 63 1014.8
20260901215002 92 154 0.0 1.7 0.00 0.00 0.00 62 1015.0
20260901214044 92 155 0.0 1.7 0.00 0.00 0.00 60 1015.0
20260901213023 93 155 0.0 1.7 0.00 0.00 0.00 59 1014.9
20260901212023 93 155 0.0 1.7 0.00 0.00 0.00 58 1014.9
20260901211002 94 145 0.9 4.3 0.00 0.00 0.00 58 1014.9
20260901210022 94 33 0.9 3.5 0.00 0.00 0.00 58 1014.8
20260901205023 94 76 0.9 2.6 0.00 0.00 0.00 57 1014.9
20260901204023 94 163 0.9 2.6 0.00 0.00 0.00 57 1014.9
20260901203044 95 147 0.9 3.5 0.00 0.00 0.00 58 1014.9
20260901202023 95 117 0.9 4.3 0.00 0.00 0.00 58 1015.0
20260901201002 95 174 0.9 2.6 0.00 0.00 0.00 58 1015.2
20260901200002 95 138 1.7 3.5 0.00 0.00 0.00 58 1015.4
20260901195044 95 58 1.7 5.2 0.00 0.00 0.00 55 1015.3
20260901194023 95 170 0.9 5.2 0.00 0.00 0.00 58 1015.4
20260901193002 94 64 0.9 6.1 0.00 0.00 0.00 60 1015.6
20260901192023 94 18 1.7 7.0 0.00 0.00 0.00 58 1015.7
20260901191002 94 6 1.7 7.0 0.00 0.00 0.00 60 1015.8
20260901190002 95 37 2.6 8.7 0.00 0.00 0.00 57 1016.3
20260901185002 95 7 2.6 7.8 0.00 0.00 0.00 56 1016.5
20260901184023 96 162 1.7 7.0 0.00 0.00 0.00 57 1016.5
20260901183002 95 31 1.7 4.3 0.00 0.00 0.00 57 1016.3
20260901182044 96 18 1.7 4.3 0.00 0.00 0.00 57 1016.2
20260901181044 95 43 0.9 2.6 0.00 0.00 0.00 60 1016.2
20260901180002 94 102 0.9 3.5 0.00 0.00 0.00 59 1016.2
20260901175002 93 20 1.7 4.3 0.00 0.00 0.00 60 1016.2
20260901174002 93 72 0.9 5.2 0.00 0.00 0.00 61 1016.2
20260901173002 93 360 0.9 4.3 0.00 0.00 0.00 64 1016.2
20260901172002 93 8 0.9 5.2 0.00 0.00 0.00 61 1016.3
20260901171023 93 5 1.7 5.2 0.00 0.00 0.00 60 1016.3
20260901170044 93 326 1.7 7.0 0.00 0.00 0.00 63 1016.4
20260901165002 92 18 1.7 4.3 0.00 0.00 0.00 63 1016.5
20260901164105 92 13 0.9 4.3 0.00 0.00 0.00 63 1016.5
20260901163023 92 92 1.7 4.3 0.00 0.00 0.00 63 1016.6
20260901162002 93 154 1.7 5.2 0.00 0.00 0.00 63 1016.8
20260901161023 93 136 0.9 5.2 0.00 0.00 0.00 65 1016.7
20260901160044 92 79 0.9 3.5 0.00 0.00 0.00 64 1016.9
20260901155002 92 1 1.7 7.0 0.00 0.00 0.00 64 1016.9
20260901154044 92 106 0.9 3.5 0.00 0.00 0.00 65 1017.1
20260901153023 92 166 0.0 3.5 0.00 0.00 0.00 66 1017.2
20260901152002 91 171 0.9 3.5 0.00 0.00 0.00 64 1017.2
20260901151002 91 168 0.9 4.3 0.00 0.00 0.00 67 1017.4
20260901150044 91 167 0.0 3.5 0.00 0.00 0.00 66 1017.6
20260901145044 90 82 0.9 4.3 0.00 0.00 0.00 67 1017.6
20260901144023 90 20 0.9 1.7 0.00 0.00 0.00 66 1017.6
20260901143002 89 177 0.9 4.3 0.00 0.00 0.00 72 1017.6
20260901142002 88 184 0.9 2.6 0.00 0.00 0.00 72 1017.6
20260901141023 87 181 0.9 2.6 0.00 0.00 0.00 74 1017.6
20260901140002 86 182 0.9 3.5 0.00 0.00 0.00 75 1017.6
20260901135003 85 179 0.9 2.6 0.00 0.00 0.00 77 1017.7
20260901134002 84 195 0.0 2.6 0.00 0.00 0.00 81 1017.6
20260901133002 82 0 0.0 0.0 0.00 0.00 0.00 85 1017.6
20260901132024 80 0 0.0 0.0 0.00 0.00 0.00 90 1017.6
20260901131024 78 0 0.0 0.0 0.00 0.00 0.00 95 1017.8
20260901130002 77 0 0.0 0.0 0.00 0.00 0.00 96 1018.0
20260901125024 76 275 0.0 0.9 0.00 0.00 0.00 97 1018.0
20260901124002 75 275 0.0 0.9 0.00 0.00 0.00 97 1018.1
20260901123003 74 0 0.0 0.0 0.00 0.00 0.00 96 1018.1
20260901122045 74 0 0.0 0.0 0.00 0.00 0.00 96 1018.1
20260901121023 74 0 0.0 0.0 0.00 0.00 0.00 96 1018.1
20260901120003 74 0 0.0 0.0 0.00 0.00 0.00 96 1017.9
20260901115045 74 0 0.0 0.0 0.00 0.00 0.00 96 1017.9
20260901114003 74 0 0.0 0.0 0.00 0.00 0.00 96 1017.8
20260901113003 74 89 0.0 2.6 0.00 0.00 0.00 96 1017.6
20260901112003 74 0 0.0 0.0 0.00 0.00 0.00 96 1017.5
20260901111003 73 0 0.0 0.0 0.00 0.00 0.00 96 1017.4
20260901110024 73 0 0.0 0.0 0.00 0.00 0.00 95 1017.4
20260901105024 74 0 0.0 0.0 0.00 0.00 0.00 95 1017.4
20260901104003 74 0 0.0 0.0 0.00 0.00 0.00 95 1017.4
20260901103003 74 0 0.0 0.0 0.00 0.00 0.00 95 1017.2
20260901102003 73 0 0.0 0.0 0.00 0.00 0.00 95 1017.1
20260901101003 74 0 0.0 0.0 0.00 0.00 0.00 95 1017.1
20260901100003 74 0 0.0 0.0 0.00 0.00 0.00 95 1017.1
20260901095045 74 0 0.0 0.0 0.00 0.00 0.00 95 1017.1
20260901094024 74 0 0.0 0.0 0.00 0.00 0.00 95 1017.1
20260901093003 74 0 0.0 0.0 0.00 0.00 0.00 95 1017.2
20260901092024 74 0 0.0 0.0 0.00 0.00 0.00 94 1017.4
20260901091001 74 0 0.0 0.0 0.00 0.00 0.00 94 1017.5
20260901090021 74 0 0.0 0.0 0.00 0.00 0.00 94 1017.4
20260901085000 74 0 0.0 0.0 0.00 0.00 0.00 95 1017.5
20260901084001 75 0 0.0 0.0 0.00 0.00 0.00 95 1017.5
20260901083022 75 0 0.0 0.0 0.00 0.00 0.00 95 1017.5
20260901082043 75 0 0.0 0.0 0.00 0.00 0.00 95 1017.5